星链-4468 (STARLINK-4468 )

导读

STARLINK-4468是美国SpaceX公司星链(Starlink)星座的一颗低轨通信卫星,于2022年10月5日发射入轨。星链星座旨在为全球提供宽带互联网服务,该卫星采用平板设计,搭载Ku/Ka波段通信载荷,配备氪工质霍尔推进器,具备自主避撞能力,设计寿命约5-7年,退役后会坠入大气层烧毁。目前运行在约550公里高度的近地轨道,为全球用户提供互联网接入服务。

Basic Information
目录编号:
53969
目录名称:
STARLINK-4468
国际标识:
2022-125F
轨道中心:
EARTH
卫星名称:
星链-4468
卫星全名:
星链-4468 (STARLINK-4468 )
卫星状态:
在轨 (已飞行1351 天)
发射日期:
2022-10-05 UTC
国别 :
美国 (US)
星等 :
--
Orbit Information
数据来源 国际轨道数据 AOE轨道数据
星历时间 2026-06-17T12:36:37+0800
6小时前
查看轨道信息
2026-06-16T04:00:00+0800
1天前
查看轨道信息
半长轴 6917.907km 6917.912km
偏心率 0.0001384 0.000174
轨道倾角 53.161° 53.157°
近地点辐角 86.076° 68.234°
升交点赤经 137.339° 143.453°
平近点角 274.039° 107.303°
近地点 538.812km 538.571km
远地点 540.728km 540.979km
周期 95.438分钟 95.438分钟
每日圈数 15.088316 15.088299
Detailed Information
固有亮度:
5
最大亮度:
2.5
卫星平台:
Starlink v1.5
覆盖范围:
全球
运营商:
太空探索技术公司
运营商所在国:
美国
制造商(研发单位):
太空探索技术公司
制造商所在国:
美国
使用方式:
暂无
Satellite Introduction
星链(Starlink)计划是由太空探索技术公司(SpaceX)提出的一个巨型低轨卫星互联网星座项目,计划在2019年至2024年间在太空搭建由约1.2万颗卫星组成的“星链”网络,其中1584颗将部署在地球上空550千米处的近地轨道,并从2020年开始工作。该卫星仍在工作。
2D Orbit Map
3D Orbit Map
Orbit Altitude Analysis Chart
Orbit Inclination Analysis Chart
Orbit Comprehensive Analysis Chart
View Comprehensive Chart